TimeCST,TemperatureF,Dew PointF,Humidity,Sea Level PressureIn,VisibilityMPH,Wind Direction,Wind SpeedMPH,Gust SpeedMPH,PrecipitationIn,Events,Conditions,WindDirDegrees,DateUTC
12:53 AM,33.1,30.0,89,30.32,10.0,ENE,3.5,-,N/A,,Clear,60,2013-03-07 06:53:00
1:53 AM,32.0,28.9,88,30.35,10.0,Calm,Calm,-,N/A,,Clear,0,2013-03-07 07:53:00
2:53 AM,30.9,28.9,92,30.34,10.0,NE,3.5,-,N/A,,Clear,40,2013-03-07 08:53:00
3:53 AM,34.0,30.0,85,30.35,10.0,NE,5.8,-,N/A,,Clear,40,2013-03-07 09:53:00
4:53 AM,34.0,30.0,85,30.36,10.0,NE,3.5,-,N/A,,Clear,50,2013-03-07 10:53:00
5:53 AM,34.0,30.0,85,30.37,10.0,ENE,4.6,-,N/A,,Clear,70,2013-03-07 11:53:00
6:53 AM,33.1,30.0,89,30.38,6.0,NE,4.6,-,N/A,,Clear,50,2013-03-07 12:53:00
7:53 AM,37.0,30.9,79,30.40,10.0,ENE,5.8,-,N/A,,Clear,70,2013-03-07 13:53:00
8:53 AM,39.0,30.0,70,30.40,10.0,ESE,8.1,-,N/A,,Clear,110,2013-03-07 14:53:00
9:53 AM,41.0,28.9,62,30.41,10.0,ESE,6.9,-,N/A,,Clear,120,2013-03-07 15:53:00
10:53 AM,43.0,30.0,60,30.42,10.0,East,5.8,-,N/A,,Clear,90,2013-03-07 16:53:00
11:53 AM,44.1,30.0,58,30.40,10.0,ESE,4.6,-,N/A,,Clear,110,2013-03-07 17:53:00
12:53 PM,46.0,30.9,56,30.37,10.0,Variable,5.8,-,N/A,,Clear,0,2013-03-07 18:53:00
1:53 PM,48.0,33.1,56,30.35,10.0,SSE,3.5,-,N/A,,Clear,150,2013-03-07 19:53:00
2:53 PM,48.9,32.0,52,30.34,10.0,ESE,6.9,-,N/A,,Clear,120,2013-03-07 20:53:00
3:53 PM,48.9,32.0,52,30.32,10.0,ESE,3.5,-,N/A,,Clear,110,2013-03-07 21:53:00
4:53 PM,48.9,33.1,54,30.31,10.0,East,5.8,-,N/A,,Clear,90,2013-03-07 22:53:00
5:53 PM,46.9,34.0,61,30.30,10.0,East,5.8,-,N/A,,Clear,80,2013-03-07 23:53:00
6:53 PM,44.1,37.0,76,30.31,10.0,ENE,6.9,-,N/A,,Clear,70,2013-03-08 00:53:00
7:53 PM,42.1,36.0,79,30.31,10.0,ENE,5.8,-,N/A,,Clear,60,2013-03-08 01:53:00
8:53 PM,41.0,34.0,76,30.32,10.0,NE,5.8,-,N/A,,Clear,50,2013-03-08 02:53:00
9:53 PM,39.0,33.1,79,30.32,10.0,NE,5.8,-,N/A,,Clear,50,2013-03-08 03:53:00
10:53 PM,39.0,33.1,79,30.32,10.0,NE,4.6,-,N/A,,Clear,50,2013-03-08 04:53:00
11:53 PM,39.0,32.0,76,30.32,10.0,NE,5.8,-,N/A,,Clear,40,2013-03-08 05:53:00